www.pogodaiklimat.ru

Погода и климат >> Архив погоды >> Аргентина >> Лас-Ломитас


ПОГОДА в Лас-Ломитасе

  • Прогноз погоды в Лас-Ломитасе
  • Монитор погоды в Лас-Ломитасе

АРХИВ ПОГОДЫ в Лас-Ломитасе

Время (UTC), дата Ветер
(напр.,м/с)
 
Видим.   Явления Облачность Т
(С)
Тd
(С)
f
(%)
Тe
(С)
Тes
(С)
Комфортность P
(гПа)
Po
(гПа)
Тmin
(С)
Tmax
(С)
R
(мм)
R24
(мм)
S
(см)
21 9.01 СВ 3 20 км 3/3 1500 м
[Cu hum]
+35.4 +20.8 43 +42 +44 опасность
перегрева
1000.8 986.4
00 10.01 СВ 1 20 км 3/0
[Ci]
+31.4 +21.4 55 +39 +39 очень
душно
1000.9 986.4 +29.2 +36.5
09 10.01 штиль 0 20 км 3/0
[Ci fib]
+25.4 +19.9 72 +31 +31 очень
душно
1004.3 989.7
12 10.01 штиль 0 20 км 6/0
[Ac trans]
+27.8 +21.9 70 +36 +42 очень
душно
1007.3 992.8 +25.4 +31.4
15 10.01 СВ 1 20 км 9/9 900 м
[Sc]
+31.5 +21.1 54 +39 +41 очень
душно
1008.5 994.0
18 10.01 Ю 4 20 км 9/9 900 м
[Sc]
+27.0 +21.7 73 +35 +36 очень
душно
1007.6 992.9
21 10.01 Ю 3 10 км 10/4 1200 м
[Cb cap As op]
+20.2 +19.3 95 +24 +24 комфорт 1010.4 995.3
00 11.01 Ю 2 10 км гроза, ливневой дождь 10/3 1200 м
[Cb cap As op]
+20.0 +19.1 95 +24 +24 комфорт 1012.5 997.6 +20.0 +32.0 60
09 11.01 Ю 1 18 км слаб. дождь {гроза} 10/0 1500 м
[As op]
+19.8 +19.2 96 +24 +24 комфорт 1020.7 1005.4
12 11.01 штиль 0 18 км слаб. дождь 10/0 1500 м
[As op]
+20.2 +19.4 95 +24 +26 комфорт 1015.3 1000.1 +19.8 +20.4 46
15 11.01 штиль 0 18 км слаб. дождь 10/0 1500 м
[As op]
+21.4 +20.2 93 +27 +32 душно 1015.3 1000.1
18 11.01 ЮЗ 1 10 км слаб. дождь 10/5 240 м
[St As op]
+22.2 +21.0 93 +29 +31 очень
душно
1013.5 998.4 14
21 11.01 ЮЗ 1 10 км слаб. морось {дождь} 10/10 240 м
[Frnb]
+22.8 +21.6 93 +30 +30 очень
душно
1011.3 996.2
00 12.01 ЮЗ 1 10 км слаб. морось 10/10 240 м
[Frnb]
+22.4 +21.8 96 +30 +30 очень
душно
1012.6 997.6 +20.2 +22.8 1
09 12.01 штиль 0 20 км 10/10 1200 м
[St]
+21.2 +20.6 96 +26 +26 душно 1013.2 998.1
12 12.01 штиль 0 20 км слаб. морось 10/10 450 м
[Frnb]
+22.0 +21.1 95 +28 +28 душно 1014.6 999.4 +21.2 +22.4 0.0
15 12.01 С 1 20 км в посл. час морось 10/10 1050 м
[St]
+26.8 +23.3 81 +36 +36 очень
душно
1013.8 998.9
18 12.01 СВ 1 20 км {морось} 8/8 900 м
[Cu hum]
+29.6 +23.6 70 +40 +44 очень
душно
1011.3 996.5 0.0
21 12.01 СВ 1 20 км 5/3 1050 м
[Cu hum Ci]
+30.4 +23.2 65 +41 +43 опасность
перегрева
1007.8 993.0
00 13.01 штиль 0 20 км 4/0
[Ci]
+27.6 +24.5 83 +39 +39 очень
душно
1009.4 994.5 +22.0 +31.5
09 13.01 штиль 0 20 км в посл. час дождь 9/9 450 м
[Sc]
+23.6 +22.7 95 +31 +31 очень
душно
1009.9 995.2
12 13.01 СВ 1 20 км {дождь} 9/0
[Ac trans]
+25.0 +23.3 90 +33 +37 очень
душно
1011.3 996.5 +23.6 +27.6 11
15 13.01 СВ 1 20 км 4/4 600 м
[Cu hum]
+31.3 +25.6 72 +46 +61 опасность
перегрева
1010.9 996.2
18 13.01 СВ 1 20 км 6/6 1200 м
[Cu med, cong]
+33.0 +24.3 60 +45 +53 опасность
перегрева
1009.2 994.5
21 13.01 СВ 1 20 км 8/8 1200 м
[St]
+33.8 +23.6 55 +45 +46 опасность
перегрева
1006.8 992.2
00 14.01 СВ 1 20 км зарница 6/3 1500 м
[Cb cap Ac As]
+29.8 +24.1 72 +42 +42 опасность
перегрева
1008.2 993.6 +25.0 +35.0
09 14.01 СВ 1 20 км 4/0
[Ac As]
+26.0 +24.0 89 +36 +36 очень
душно
1009.6 995.0
12 14.01 СВ 1 20 км 9/0
[Ac As]
+27.0 +24.1 84 +37 +41 очень
душно
1010.9 996.1 +26.0 +29.9
15 14.01 СВ 1 20 км 9/0
[Cs]
+31.6 +23.9 64 +43 +63 опасность
перегрева
1010.0 995.4
18 14.01 СВ 1 20 км 9/3 1050 м
[Cu hum Cs]
+32.4 +24.2 62 +45 +56 опасность
перегрева
1008.9 994.2
21 14.01 СВ 1 20 км 9/4 1050 м
[Cu hum Cs]
+32.8 +24.0 60 +45 +46 опасность
перегрева
1006.8 992.2
00 15.01 штиль 0 20 км 5/0
[Ci fib]
+29.6 +24.2 73 +41 +41 опасность
перегрева
1007.2 992.5 +27.0 +33.5
09 15.01 штиль 0 20 км 6/0
[Ac As Ci]
+25.6 +23.0 86 +34 +34 очень
душно
1008.2 993.6
12 15.01 С 1 20 км 8/0
[Cs]
+29.8 +22.9 67 +40 +47 очень
душно
1009.3 994.6 +25.6 +29.8
15 15.01 С 4 20 км 8/0
[Cs]
+34.0 +22.2 50 +43 +56 опасность
перегрева
1008.2 993.7
18 15.01 СВ 4 20 км 8/3 1500 м
[Cu hum Cs]
+35.4 +22.2 46 +44 +51 опасность
перегрева
1006.7 992.2
21 15.01 СВ 1 20 км 8/3 1500 м
[Cu hum Cs]
+35.2 +23.0 49 +45 +47 опасность
перегрева
1005.7 991.2
00 16.01 штиль 0 20 км 9/0
[Ac trans]
+32.0 +24.7 65 +45 +45 опасность
перегрева
1007.6 993.0 +29.8 +35.5
09 16.01 штиль 0 20 км 5/0
[Ac trans]
+26.0 +24.3 90 +36 +36 очень
душно
1007.9 993.3
12 16.01 СЗ 1 20 км 4/0
[Cs]
+28.8 +25.1 80 +42 +49 опасность
перегрева
1010.0 995.3 +26.0 +32.0
15 16.01 СЗ 3 20 км 5/5 900 м
[Cu hum]
+33.5 +24.1 58 +45 +55 опасность
перегрева
1010.2 995.7
18 16.01 СЗ 3 20 км 8/8 900 м
[Cu hum]
+35.6 +23.4 49 +46 +49 опасность
перегрева
1008.9 994.4

 

Местоположение метеостанции Лас-Ломитас (Аргентина): широта -24.70 долгота -60.58 высота над уровнем моря 130 м.

В архиве по умолчанию представлена погода в Лас-Ломитасе за последнюю неделю. Архивные данные за месяц целиком и за предыдущие месяцы, начиная с января 2011 года, Вы можете получить, выбрав интересующий диапазон дат из раскрывающегося списка и нажав кнопку "Ввод!".


*Определитесь, кто Вы:
робот инопланетянин человек

Внимание! Время в таблицах - всемирное. Для получения местного времени необходимо прибавить поправку, которая равна -3 ч.

Смотрите также архив погоды в соседних городах и на ближайших метеорологических станциях:

Погода в Грал Бругуез (Парагвай) (177 км)
Погода в Посо Колорадо (Парагвай) (225 км)
Погода в Пресиденсиа-Роке-Саэнс-Пеньи (Аргентина) (226 км)
Погода в Пратс-Гиле (Парагвай) (241 км)
Погода в Формосе (Аргентина) (289 км)
Погода в Марискал-Эстигаре (Парагвай) (299 км)
Погода в Асунсьоне (Парагвай) (316 км)
Погода в Пиларе (Парагвай) (330 км)
Погода в Ресистенсии (Аргентина) (342 км)
Погода в Корриентесе (Аргентина) (356 км)

Пояснения к столбцам:

Ветер - указаны скорость ветра в м/с - средняя за 10 мин, порывы в срок и между сроками (в фигурных скобках) и направление, откуда дует ветер: С - северный, СВ - северо-восточный, В - восточный, ЮВ - юго-восточный, Ю - южный, ЮЗ - юго-западный, З - западный, СЗ - северо-западный.
Видимость - горизонтальная дальность видимости в метрах или километрах. При видимости от 1 до 10 км при отсутствии осадков обычно наблюдается дымка, при ухудшении видимости до 1 км и менее - туман. В сухую погоду видимость может ухудшаться дымом, пылью или мглою.
Явления - указаны атмосферные явления, наблюдавшиеся в срок или в последний час перед сроком; фигурными скобками обозначены явления, наблюдавшиеся между сроками (за 1-3 часа до срока); квадратными скобками обозначены град или гололедные отложения с указанием их диаметра в мм.
Облачность - указаны через наклонную черту общая и нижняя облачность в баллах и высота нижней границы облаков в метрах; квадратными скобками обозначены формы облаков: Ci - перистые, Cs - перисто-слоистые, Cc - перисто-кучевые, Ac - высококучевые, As - высокослоистые, Sc - слоисто-кучевые, Ns - слоисто-дождевые, Cu - кучевые, Cb - кучево-дождевые. Подробнее классификацию облаков см. в Атласе облаков (PDF).
T - Температура воздуха - температура, измеренная на высоте 2 м над землей.
Td - Температура точки росы - температура, при понижении до которой содержащийся в воздухе водяной пар достигнет насыщения.
f - Относительная влажность воздуха - влажноcть воздуха, измеренная на высоте 2 м над землей.
Te - Эффективная температура - температура, которую ощущает одетый по сезону человек в тени. Характеристика душности погоды. При расчете учитывается влияние влажности воздуха и скорости ветра на теплоощущения человека.
Tes - Эффективная температура на солнце - температура, которую ощущает человек, с поправкой на солнечный нагрев. Характеристика знойности погоды. Зависит от высоты солнца над горизонтом, облачности и скорости ветра. Ночью, в пасмурную погоду, а также при ветре 12 м/с и более поправка равна нулю.
P - Атмосферное давление - приведенное к уровню моря атмосферное давление.
Po - Атмосферное давление - измеренное на уровне метеостанции атмосферное давление.
Tmin - Минимальная температура - минимум температуры воздуха на высоте 2 м над землей.
Tmax - Максимальная температура - максимум температуры воздуха на высоте 2 м над землей.
R - Количество осадков - Количество выпавших осадков за период времени, мм. При наведении курсора мыши на число - период времени, за который выпало указанное количество осадков.
R24 - Количество осадков - Количество выпавших осадков за 24 часа, мм.
S - Снежный покров - Высота снежного покрова, см. При наведении курсора мыши на число - состояние снежного покрова и степень покрытия местности в баллах.